Weather in Novyy Urukh

Russia / Republic of North Ossetia — Alania     43°14′02″N   43°56′16″E
temp.,
°C
wind,
m/s
gust,
m/s
humid.,
%
clouds,
%
prec.,
mm/h
press.,
hPa
HPBL,
m
7 march, sun
sun700:00+5wsw2358100 0.0 101630
03:00+3nne4978100 0.0 1019399
06:00−2n1494100 1.4 1023297
09:00−3nne4690100 3.9 1023531
12:00−1ne237397 0.3 1022804
15:00+1e126193 0.3 1021987
18:00−2sse116991 0.0 102326
21:00−3sw227791 0.0 102353
8 march, mon
mon800:00−4sw227126 0.0 102233
03:00−5wsw226914 0.0 102239
06:00−5wsw226939 0.0 102151
09:000nnw125429 0.0 1020472
12:00+2ese2356100 0.0 1017896
15:00+2sw0158100 0.0 1016920
18:00−1sw347896 0.0 101779
21:00−2wsw227988 0.0 101931
9 march, tue
tue900:00−3wsw227319 0.0 101932
03:00−3wsw227138 0.0 101833
06:00−3wsw227592 0.0 101936
09:000sse017275 0.0 1018400
12:00+3sse116517 0.0 1017794
15:00+4ssw226313 0.0 1017841
18:00+1sw126686 0.0 101936
21:00−1wnw129793 1.4 1022116
10 march, wed
wed1000:00−2sw2296100 2.2 1023117
03:00−3sw2495100 4.1 1024150
06:00−4nw019299 1.0 102586
09:00−2ene239498 2.3 1024330
12:00−1ne2383100 0.4 1022633
15:00+1ene2371100 0.6 1020874
18:00−1ese1279100 0.1 102028
21:00−2ese1391100 0.3 1021251
11 march, thu
thu1100:00−2e2592100 0.3 1019379
03:00−3ne2492100 1.3 1018323
06:00−4ene2395100 1.6 1018287
09:00−4ene3494100 3.7 1017409
12:00−4ene5793100 1.6 1015610
15:00−5ne5794100 3.9 1015614
18:00−8ne3696100 1.9 1017436
21:00−9ne2496100 3.2 1020338